Location: Ecklingerode
(51.5036°N, 10.3122°E)
Time: 14:43:04
(UTC+00:00)

Okean-O - Pass Details

Date: 29 October 2020
Orbit: 638 x 641 km, 98.2° (Epoch: 28 November)

Event Time Altitude Azimuth Distance (km) Brightness Sun altitude
Rises 16:24:10 0° 125° (SE) 2,941 5.7 -4.9°
Reaches altitude 10° 16:26:45 10° 110° (ESE) 2,036 4.7 -5.3°
Maximum altitude 16:30:09 22° 60° (ENE) 1,403 3.8 -5.8°
Drops below altitude 10° 16:33:33 10° 10° (N) 2,046 5.0 -6.3°
Sets 16:36:09 0° 355° (N) 2,960 6.0 -6.7°
